EW5790 Weather Reports


Display with metric or nautical units.
time (UTC)temp
F
wind
direction
speed
MPH
gust
MPH
rain 1hr
in
rain 24hr
in
rain mn
in
humidity
%
barometer
mb
20260505024524 68 181 0.0 0.0 0.00 0.00 0.00 58 1009.0
20260505023015 68 136 0.0 0.0 0.00 0.00 0.00 58 1009.0
20260505021513 68 164 0.0 0.0 0.00 0.00 0.00 59 1008.9
20260505020014 67 177 0.0 0.0 0.00 0.00 0.00 60 1008.8
20260505014508 66 129 0.0 0.0 0.00 0.00 0.00 62 1008.8
20260505013003 66 190 0.0 0.0 0.00 0.00 0.00 64 1009.0
20260505011600 67 190 0.0 0.0 0.00 0.00 0.00 62 1009.0
20260505010056 68 190 0.0 0.0 0.00 0.00 0.00 58 1008.9
20260505004555 71 190 0.0 0.0 0.00 0.00 0.00 54 1009.0
20260505003045 72 190 0.0 0.0 0.00 0.00 0.00 49 1009.0
20260505001545 74 157 0.0 0.0 0.00 0.00 0.00 47 1009.0
20260505000036 75 171 0.0 0.0 0.00 0.00 0.00 45 1009.0
20260504234532 76 178 0.0 0.0 0.00 0.00 0.00 45 1009.0
20260504233028 76 205 0.0 0.0 0.00 0.00 0.00 43 1009.3
20260504231522 76 232 0.0 0.0 0.00 0.00 0.00 44 1009.3
20260504230018 76 239 0.0 0.0 0.00 0.00 0.00 42 1009.4
20260504224514 77 267 0.0 0.0 0.00 0.00 0.00 40 1009.6
20260504223010 78 269 0.0 0.0 0.00 0.00 0.00 45 1009.4
20260504221504 77 286 0.0 0.0 0.00 0.00 0.00 45 1009.4
20260504220107 77 188 0.0 0.0 0.00 0.00 0.00 44 1009.5
20260504214605 78 136 0.0 0.0 0.00 0.00 0.00 46 1009.5
20260504213055 78 34 0.0 0.0 0.00 0.00 0.00 43 1009.6
20260504211547 78 294 0.0 0.0 0.00 0.00 0.00 40 1009.4
20260504210055 79 284 0.0 0.0 0.00 0.00 0.00 41 1009.4
20260504204552 79 126 0.0 0.0 0.00 0.00 0.00 44 1009.5
20260504203035 77 269 0.0 0.0 0.00 0.00 0.00 45 1009.8
20260504201528 79 271 0.0 0.0 0.00 0.00 0.00 43 1010.0
20260504200025 79 276 0.0 0.0 0.00 0.00 0.00 42 1010.2
20260504194521 80 24 0.0 0.0 0.00 0.00 0.00 48 1010.6
20260504193016 79 241 0.0 0.0 0.00 0.00 0.00 45 1010.8
20260504191511 79 216 0.0 0.0 0.00 0.00 0.00 45 1010.8
20260504190006 78 289 0.0 0.0 0.00 0.00 0.00 48 1011.2
20260504184502 78 135 0.0 0.0 0.00 0.00 0.00 46 1011.2
20260504183104 77 146 0.0 0.0 0.00 0.00 0.00 48 1011.4
20260504181553 77 278 0.0 0.0 0.00 0.00 0.00 50 1011.7
20260504180058 76 196 0.0 0.0 0.00 0.00 0.00 54 1011.7
20260504174546 75 302 0.0 0.0 0.00 0.00 0.00 48 1012.0
20260504173041 75 283 0.0 0.0 0.00 0.00 0.00 53 1012.0
20260504171537 74 5 0.0 0.0 0.00 0.00 0.00 53 1012.3
20260504081559 45 144 0.0 0.0 0.00 0.00 0.00 2 1015.1
20260504044557 42 128 0.0 0.0 0.00 0.00 0.00 23 1016.1
20260504043058 43 128 0.0 0.0 0.00 0.00 0.00 31 1016.1
20260504041549 44 128 0.0 0.0 0.00 0.00 0.00 36 1016.1
20260504040048 45 128 0.0 0.0 0.00 0.00 0.00 42 1016.2
20260504034550 45 128 0.0 0.0 0.00 0.00 0.00 47 1016.4
20260504033037 45 128 0.0 0.0 0.00 0.00 0.00 54 1016.6
20260504031534 46 128 0.0 0.0 0.00 0.00 0.00 61 1016.6
20260504030034 47 128 0.0 0.0 0.00 0.00 0.00 61 1016.4